Valladolid(Mil/C, Spain

10:47 AM CET on December 10, 2016 (GMT +0100)
Villanubla

Weather History for LEVD - March, 2013

Change the Weather History Date:

Saturday, March 23, 2013

  Actual Average Record
Temperature  
Mean Temperature 43 °F -  
Max Temperature 51 °F - - ()
Min Temperature 35 °F - - ()
Degree Days  
Heating Degree Days 22    
Moisture  
Dew Point 40 °F    
Average Humidity 80    
Maximum Humidity 100    
Minimum Humidity 62    
Precipitation  
Precipitation 0.00 in - - ()
Sea Level Pressure  
Sea Level Pressure 29.58 in    
Wind  
Wind Speed 6 mph ()    
Max Wind Speed 15 mph    
Max Gust Speed -    
Visibility 6.2 miles    
Events Rain    
T = Trace of Precipitation, MM = Missing Value Source: Averaged Metar Reports

Daily Weather History Graph

Daily Weather History Graph

Search for Another Location

Airport or City:

Trip Planner

Search our weather history database for the weather conditions in past years. The results will help you decide how hot, cold, wet, or windy it might be!

Date:

Astronomy

Mar. 23, 2013 Rise Set
Actual Time 7:17 AM CET 7:34 PM CET
Civil Twilight 6:49 AM CET 8:02 PM CET
Nautical Twilight 6:17 AM CET 8:35 PM CET
Astronomical Twilight 5:43 AM CET 9:08 PM CET
Moon 3:44 PM CET (3/23) 4:48 AM CET (3/23)
Length of Visible Light 13h 12m
Length of Day
12h 17m
Waxing Gibbous, 83% of the Moon is Illuminated
Mar 23
Waxing Gibbous
Mar 27
Full
Apr 3
Last Quarter
Apr 10
New
Apr 18
First Quarter

Hourly Weather History & Observations

Time (CET) Temp. Windchill Dew Point Humidity Pressure Visibility Wind Dir Wind Speed Gust Speed Precip Events Conditions
7:00 AM 35.6 °F 32.8 °F 35.6 °F 100% 29.65 in 6.2 mi SSE 3.5 mph - N/A   Partly Cloudy
7:30 AM 35.6 °F 32.8 °F 35.6 °F 100% 29.65 in 6.2 mi SSE 3.5 mph - N/A   Partly Cloudy
8:00 AM 37.4 °F 34.9 °F 37.4 °F 100% 29.65 in 6.2 mi SSE 3.5 mph - N/A   Partly Cloudy
8:30 AM 37.4 °F 33.8 °F 37.4 °F 100% 29.62 in 6.2 mi SSE 4.6 mph - N/A   Partly Cloudy
9:00 AM 41.0 °F 36.4 °F 39.2 °F 93% 29.62 in 6.2 mi SSE 6.9 mph - N/A   Partly Cloudy
9:30 AM 42.8 °F 38.0 °F 41.0 °F 93% 29.62 in 6.2 mi SSE 8.1 mph - N/A   Partly Cloudy
10:00 AM 46.4 °F 42.9 °F 41.0 °F 81% 29.62 in 6.2 mi South 6.9 mph - N/A   Partly Cloudy
10:30 AM 46.4 °F 41.9 °F 41.0 °F 81% 29.62 in 6.2 mi SSE 9.2 mph - N/A   Partly Cloudy
11:00 AM 48.2 °F - 41.0 °F 76% 29.62 in 6.2 mi South 8.1 mph - N/A   Partly Cloudy
11:30 AM 50.0 °F - 39.2 °F 66% 29.59 in 6.2 mi South 8.1 mph - N/A   Scattered Clouds
12:00 PM 50.0 °F - 39.2 °F 66% 29.59 in 6.2 mi South 9.2 mph - N/A   Mostly Cloudy
12:30 PM 50.0 °F - 37.4 °F 62% 29.59 in 6.2 mi South 11.5 mph - N/A   Mostly Cloudy
1:00 PM 51.8 °F - 41.0 °F 67% 29.59 in 6.2 mi SSW 10.4 mph - N/A   Mostly Cloudy
1:30 PM 50.0 °F - 37.4 °F 62% 29.59 in 6.2 mi SSW 9.2 mph - N/A   Mostly Cloudy
2:00 PM 50.0 °F - 37.4 °F 62% 29.59 in 6.2 mi SW 10.4 mph - N/A   Mostly Cloudy
2:30 PM 51.8 °F - 39.2 °F 62% 29.56 in 6.2 mi SW 11.5 mph - N/A   Mostly Cloudy
3:00 PM 50.0 °F - 42.8 °F 76% 29.56 in 6.2 mi West 12.7 mph - N/A   Mostly Cloudy
3:30 PM 50.0 °F - 37.4 °F 62% 29.56 in 6.2 mi SW 6.9 mph - N/A   Partly Cloudy
4:00 PM 50.0 °F - 41.0 °F 71% 29.53 in 6.2 mi WSW 6.9 mph - N/A   Partly Cloudy
4:30 PM 50.0 °F - 41.0 °F 71% 29.53 in 6.2 mi SW 6.9 mph - N/A   Partly Cloudy
5:00 PM 50.0 °F - 39.2 °F 66% 29.53 in 6.2 mi SW 6.9 mph - N/A   Partly Cloudy
5:30 PM 51.8 °F - 39.2 °F 62% 29.53 in 6.2 mi Variable 2.3 mph - N/A   Partly Cloudy
6:00 PM 50.0 °F - 39.2 °F 66% 29.53 in 6.2 mi WSW 9.2 mph - N/A   Partly Cloudy
6:30 PM 44.6 °F 37.8 °F 41.0 °F 87% 29.56 in 6.2 mi South 15.0 mph - N/A Rain Rain Showers
7:00 PM 42.8 °F 37.5 °F 41.0 °F 93% 29.56 in 6.2 mi SSE 9.2 mph - N/A Rain Rain
7:30 PM 42.8 °F 37.5 °F 41.0 °F 93% 29.56 in 6.2 mi SE 9.2 mph - N/A   Partly Cloudy
8:00 PM 42.8 °F 37.5 °F 42.8 °F 100% 29.56 in 6.2 mi SE 9.2 mph - N/A   Scattered Clouds
8:30 PM 42.8 °F 38.0 °F 41.0 °F 93% 29.56 in 6.2 mi SE 8.1 mph - N/A   Scattered Clouds
9:00 PM 42.8 °F 38.6 °F 41.0 °F 93% 29.56 in 6.2 mi SSE 6.9 mph - N/A   Scattered Clouds
9:30 PM 42.8 °F 41.1 °F 41.0 °F 93% 29.56 in 6.2 mi SSE 3.5 mph - N/A   Scattered Clouds